User: anonymous   Login
Location: Prairie State College
(41.5244°N, 87.6382°W)
Time: 21:04:39
(UTC-06:00)
Language:

ARGOS Delta rocket - Orbit

View from above orbital plane
View from above orbital plane
View from above satellite
View from above satellite

Ground track
Ground track

The orbit data is extracted from the following two-line orbital elements,

1 25637U 99008D   14355.44126487  .00001003  00000-0  25640-3 0  6679
2 25637 096.4869 093.4235 0141872 291.7158 114.5468 14.46098776834252
Epoch (UTC): 21 December 2014 10:35:25
Eccentricity: 0.0141872
inclination: 96.4869°
perigee height: 637 km
apogee height: 839 km
right ascension of ascending node: 93.4235°
argument of perigee: 291.7158°
revolutions per day: 14.46098776
mean anomaly at epoch: 114.5468°
orbit number at epoch: 83425

The dashed part of the orbit path shows where the satellite is in the earth's shadow,  

DLR